Orbital Elements at Epoch 2459200.5 (2020-Dec-17.0) TDB
Reference: JPL 37 (heliocentric ecliptic J2000)
Element | Value | Uncertainty (1-sigma) | Units |
e | .0349714429994411 | 4.3706e-08 | |
a | 3.205026467308165 | 1.9846e-08 | au |
q | 3.092942066894997 | 1.3886e-07 | au |
i | 7.627999826410939 | 4.7189e-06 | deg |
node | 175.7461644392394 | 2.4038e-05 | deg |
peri | 334.271759305728 | 6.1276e-05 | deg |
M | 201.6199957296125 | 5.9218e-05 | deg |
tp | 2460122.527144524507 (2023-Jun-27.02714452) | 0.00034858 | TDB |
period | 2095.78079984232 5.74 | 1.9466e-05 5.33e-08 | d yr |
n | .1717736893224164 | 1.5955e-09 | deg/d |
Q | 3.317110867721333 | 2.054e-08 | au |
|
| | Orbit Determination Parameters
Additional Information
|